Main page
METAR-TAF:

METAR-TAF

Airports :

Oil platform

Troll A, Norway

latitude: 60-38-42N, longitude: 3-43-29E, elevation: 20 m

Current weather observation

The report was made 24 minutes ago, at 12:20 UTC
Wind 19 kt from the Northwest
Temperature 4°C
Humidity 87%
Pressure 968 hPa
Visibility 10 km or more
light rain showers, snow,

METAR: ENQA 231220Z AUTO 31019KT 9999 -SHRASN SCT013/// SCT033/// OVC046/// 04/02 Q0968 W04/S4

Time: 13:44 (12:44 UTC)


TAF: missing

Weather observations and forecasts of more than 4000 airports (METAR and TAF reports).

The available stations are represented by yellow and red dots on the map.

Hover mouse over dot to see the name of the station.

Then click to see weather observations and forecasts.

To change the map : click on the green buttons with a black cross to zoom in, on the green button with a dash to zoom out, or on the green arrows for adjacent maps.


METAR-TAF: